EW7235 Weather Reports


time (UTC)temp
F
wind
direction
speed
knots
gust
knots
rain 1hr
in
rain 24hr
in
rain mn
in
humidity
%
barometer
mb
20260504175035 67 19 20.0 32.2 0.00 0.00 0.00 39 1006.6
20260504174549 66 20 21.7 32.2 0.00 0.00 0.00 41 1006.5
20260504174035 65 34 23.5 32.2 0.00 0.00 0.00 42 1006.5
20260504173538 65 24 23.5 31.3 0.00 0.00 0.00 44 1006.6
20260504173048 65 25 21.7 28.7 0.00 0.00 0.00 44 1006.6
20260504172534 65 17 20.9 28.7 0.00 0.00 0.00 43 1006.6
20260504172035 65 25 23.5 28.7 0.00 0.00 0.00 44 1006.6
20260504171548 66 32 20.0 29.5 0.00 0.00 0.00 43 1006.7
20260504171035 66 360 21.7 29.5 0.00 0.00 0.00 41 1006.6
20260504170534 66 16 23.5 29.5 0.00 0.00 0.00 42 1006.6
20260504151035 61 254 4.3 7.8 0.00 0.00 0.00 58 1006.1
20260504150536 61 222 3.5 7.8 0.00 0.00 0.00 58 1006.1
20260504141034 53 264 3.5 7.0 0.00 0.00 0.00 72 1006.2
20260504140534 52 256 4.3 7.0 0.00 0.00 0.00 1006.2
20260504130530 46 248 3.5 6.1 0.00 0.00 0.00 79 1006.0
20260504110530 49 334 2.6 4.3 0.00 0.00 0.00 68 1005.9
20260504100529 47 297 1.7 2.6 0.00 0.00 0.00 73 1006.4
20260504081550 53 322 1.7 1.7 0.00 0.00 0.00 63 1006.7
20260504081033 53 304 0.9 3.5 0.00 0.00 0.00 63 1006.8
20260504080533 52 348 0.9 3.5 0.00 0.00 0.00 65 1006.9
20260504050533 56 16 5.2 7.8 0.00 0.00 0.00 57 1008.7
20260504045534 58 70 7.0 10.4 0.00 0.00 0.00 55 1008.6
20260504045030 58 67 7.8 9.6 0.00 0.00 0.00 55 1008.7
20260504044546 58 57 5.2 9.6 0.00 0.00 0.00 53 1008.8
20260504044031 58 56 4.3 12.2 0.00 0.00 0.00 53 1009.0
20260504043531 58 73 8.7 12.2 0.00 0.00 0.00 52 1008.7
20260504043052 58 81 5.2 8.7 0.00 0.00 0.00 51 1008.8
20260504042530 58 15 4.3 9.6 0.00 0.00 0.00 50 1009.8
20260504042035 58 20 7.0 9.6 0.00 0.00 0.00 49 1009.8
20260504041547 58 14 7.8 9.6 0.00 0.00 0.00 49 1009.9
20260504041037 59 341 4.3 8.7 0.00 0.00 0.00 46 1009.8
20260504040535 60 41 6.1 7.8 0.00 0.00 0.00 43 1009.7
20260504040042 61 33 5.2 10.4 0.00 0.00 0.00 42 1009.6
20260504035534 61 46 5.2 10.4 0.00 0.00 0.00 42 1009.5
20260504035038 60 37 5.2 10.4 0.00 0.00 0.00 44 1009.5
20260504034548 59 36 7.8 10.4 0.00 0.00 0.00 46 1009.2
20260504034035 61 20 4.3 7.0 0.00 0.00 0.00 43 1009.4
20260504033535 62 61 4.3 7.0 0.00 0.00 0.00 40 1009.4
20260504033046 62 61 5.2 7.8 0.00 0.00 0.00 40 1009.3
20260504032535 63 70 5.2 7.8 0.00 0.00 0.00 40 1009.2
20260504032039 63 70 5.2 7.0 0.00 0.00 0.00 40 1009.0
20260504031546 63 65 4.3 6.1 0.00 0.00 0.00 40 1009.3
20260504031034 63 62 4.3 6.1 0.00 0.00 0.00 40 1009.3
20260504030535 63 65 4.3 6.1 0.00 0.00 0.00 40 1009.3
20260504030046 63 66 4.3 5.2 0.00 0.00 0.00 40 1009.3
20260504025537 63 68 3.5 6.1 0.00 0.00 0.00 40 1009.1
20260504025039 63 71 4.3 7.0 0.00 0.00 0.00 40 1009.0
20260504024549 63 77 5.2 7.8 0.00 0.00 0.00 39 1008.7
20260504024038 64 87 6.1 8.7 0.00 0.00 0.00 38 1008.6
20260504023536 64 96 7.0 8.7 0.00 0.00 0.00 38 1008.5
20260504023043 64 98 7.0 9.6 0.00 0.00 0.00 37 1008.5
20260504022536 65 106 7.0 9.6 0.00 0.00 0.00 36 1008.4
20260504022037 65 108 7.8 9.6 0.00 0.00 0.00 36 1008.4
20260504021546 65 105 7.8 9.6 0.00 0.00 0.00 36 1008.2
20260504021041 65 109 7.0 8.7 0.00 0.00 0.00 36 1008.3
20260504020535 65 103 7.0 8.7 0.00 0.00 0.00 35 1008.1
20260504020124 66 102 7.8 8.7 0.00 0.00 0.00 35 1008.1
20260504015535 66 111 7.0 7.8 0.00 0.00 0.00 35 1008.1
20260504015035 67 106 6.1 7.0 0.00 0.00 0.00 34 1008.2
20260504014558 67 109 6.1 7.8 0.00 0.00 0.00 34 1008.3
20260504014035 68 103 6.1 7.8 0.00 0.00 0.00 33 1008.3
20260504013535 68 107 6.1 7.8 0.00 0.00 0.00 33 1008.3
20260504013050 69 113 5.2 6.1 0.00 0.00 0.00 32 1008.4
20260504012538 70 111 5.2 6.1 0.00 0.00 0.00 32 1008.6
20260504012035 70 110 3.5 5.2 0.00 0.00 0.00 32 1008.5
20260504011543 71 107 2.6 5.2 0.00 0.00 0.00 30 1008.6
20260504011035 71 109 2.6 5.2 0.00 0.00 0.00 30 1008.6
20260504010535 72 114 3.5 5.2 0.00 0.00 0.00 30 1008.6
20260504010048 72 125 2.6 5.2 0.00 0.00 0.00 30 1008.7
20260504005535 72 133 2.6 6.1 0.00 0.00 0.00 29 1008.7
20260504005035 72 121 2.6 6.1 0.00 0.00 0.00 29 1008.8
20260504004616 73 109 3.5 6.1 0.00 0.00 0.00 27 1008.9
20260504004035 73 144 2.6 5.2 0.00 0.00 0.00 28 1008.9
20260504003535 73 117 3.5 5.2 0.00 0.00 0.00 27 1009.0
20260504003050 74 128 3.5 5.2 0.00 0.00 0.00 28 1009.1
20260504002535 74 126 1.7 4.3 0.00 0.00 0.00 26 1009.1
20260504002035 74 147 2.6 5.2 0.00 0.00 0.00 27 1009.2
20260504001619 74 157 2.6 5.2 0.00 0.00 0.00 27 1009.4
20260504001035 75 125 1.7 3.5 0.00 0.00 0.00 26 1009.4
20260504000535 75 149 0.9 2.6 0.00 0.00 0.00 26 1009.3
20260504000045 75 136 0.9 2.6 0.00 0.00 0.00 25 1009.5
20260503235536 75 0 0.0 0.9 0.00 0.00 0.00 26 1009.5
20260503235038 73 0 0.0 2.6 0.00 0.00 0.00 28 1009.5
20260503234543 73 0 0.9 2.6 0.00 0.00 0.00 27 1009.6
20260503234038 73 240 0.9 4.3 0.00 0.00 0.00 27 1009.9
20260503233535 74 211 1.7 4.3 0.00 0.00 0.00 26 1009.7
20260503233047 74 196 1.7 4.3 0.00 0.00 0.00 26 1009.8
20260503232535 73 183 1.7 4.3 0.00 0.00 0.00 27 1010.0
20260503232035 73 225 2.6 5.2 0.00 0.00 0.00 27 1010.0
20260503231547 73 210 1.7 5.2 0.00 0.00 0.00 27 1010.0
20260503231035 73 219 3.5 5.2 0.00 0.00 0.00 28 1010.0
20260503230536 72 275 1.7 5.2 0.00 0.00 0.00 27 1010.2
20260503230106 72 274 2.6 5.2 0.00 0.00 0.00 27 1010.2
20260503225535 72 334 1.7 3.5 0.00 0.00 0.00 27 1010.2
20260503225035 72 53 1.7 6.1 0.00 0.00 0.00 26 1010.3
20260503224545 73 0 0.0 6.1 0.00 0.00 0.00 27 1010.3
20260503224035 73 279 1.7 6.1 0.00 0.00 0.00 27 1010.4
20260503223535 73 276 1.7 9.6 0.00 0.00 0.00 27 1010.6
20260503223045 73 14 3.5 9.6 0.00 0.00 0.00 27 1010.5
20260503222535 73 0 2.6 8.7 0.00 0.00 0.00 27 1010.6
20260503222035 73 261 3.5 7.8 0.00 0.00 0.00 27 1010.7
20260503221602 74 275 0.9 7.8 0.00 0.00 0.00 26 1010.8
20260503221034 74 0 3.5 7.8 0.00 0.00 0.00 26 1010.9
20260503220535 74 217 3.5 7.8 0.00 0.00 0.00 27 1010.9
20260503220053 74 135 3.5 10.4 0.00 0.00 0.00 27 1011.0
20260503215535 74 113 7.0 10.4 0.00 0.00 0.00 27 1011.0
20260503215033 74 82 3.5 7.8 0.00 0.00 0.00 27 1011.1
20260503214545 74 242 5.2 7.8 0.00 0.00 0.00 27 1011.2
20260503214038 74 247 3.5 7.0 0.00 0.00 0.00 27 1011.3
20260503213530 75 240 0.9 3.5 0.00 0.00 0.00 28 1011.3
20260503213046 74 248 0.0 7.0 0.00 0.00 0.00 28 1011.4
20260503212533 74 0 0.9 7.0 0.00 0.00 0.00 28 1011.5
20260503212035 74 351 0.0 7.0 0.00 0.00 0.00 27 1011.5
20260503211548 74 224 2.6 7.0 0.00 0.00 0.00 28 1011.5
20260503211034 74 255 1.7 7.8 0.00 0.00 0.00 27 1011.6
20260503210534 73 85 1.7 8.7 0.00 0.00 0.00 27 1011.6
20260503210051 74 71 2.6 8.7 0.00 0.00 0.00 27 1011.7
20260503205535 73 234 0.0 9.6 0.00 0.00 0.00 29 1011.8
20260503205034 72 71 0.0 11.3 0.00 0.00 0.00 29 1012.0
20260503204541 72 71 6.1 11.3 0.00 0.00 0.00 28 1012.0
20260503204033 71 59 8.7 14.8 0.00 0.00 0.00 29 1012.0
20260503203534 71 58 3.5 14.8 0.00 0.00 0.00 29 1012.1
20260503203059 71 44 6.1 13.9 0.00 0.00 0.00 29 1012.0
20260503202537 72 60 8.7 13.0 0.00 0.00 0.00 28 1012.2
20260503202036 72 88 6.1 9.6 0.00 0.00 0.00 29 1012.2
20260503201541 72 97 3.5 9.6 0.00 0.00 0.00 28 1012.2
20260503201033 72 82 3.5 7.8 0.00 0.00 0.00 28 1012.1
20260503200533 72 115 4.3 9.6 0.00 0.00 0.00 29 1012.1
20260503200041 72 59 7.0 9.6 0.00 0.00 0.00 28 1012.2
20260503195535 72 74 1.7 11.3 0.00 0.00 0.00 29 1012.2
20260503195033 72 69 7.0 11.3 0.00 0.00 0.00 28 1012.3
20260503194548 73 59 4.3 8.7 0.00 0.00 0.00 29 1012.2
20260503194033 71 303 1.7 7.8 0.00 0.00 0.00 31 1012.3
20260503193531 70 265 2.6 11.3 0.00 0.00 0.00 29 1012.4
20260503193047 70 37 7.8 13.0 0.00 0.00 0.00 29 1012.3
20260503192533 71 348 2.6 13.0 0.00 0.00 0.00 29 1012.5
20260503192034 71 31 7.8 13.0 0.00 0.00 0.00 28 1012.6
20260503191551 71 44 8.7 13.0 0.00 0.00 0.00 29 1012.5
20260503191034 71 34 0.9 7.8 0.00 0.00 0.00 29 1012.7
20260503190533 71 101 2.6 7.8 0.00 0.00 0.00 28 1012.7
20260503190057 71 63 1.7 7.0 0.00 0.00 0.00 29 1012.7
20260503185533 71 134 0.9 8.7 0.00 0.00 0.00 28 1012.8
20260503185034 70 322 4.3 13.0 0.00 0.00 0.00 29 1013.0
20260503184547 70 42 4.3 13.0 0.00 0.00 0.00 29 1013.0
20260503184034 70 19 7.0 16.5 0.00 0.00 0.00 29 1013.0
20260503183535 71 55 7.0 16.5 0.00 0.00 0.00 30 1013.1
20260503183047 70 40 10.4 16.5 0.00 0.00 0.00 29 1013.2
20260503182533 70 264 6.1 12.2 0.00 0.00 0.00 29 1013.2
20260503182030 70 79 4.3 16.5 0.00 0.00 0.00 30 1013.4
20260503181554 70 325 6.1 16.5 0.00 0.00 0.00 31 1013.5
20260503181030 69 333 10.4 16.5 0.00 0.00 0.00 31 1013.5
20260503180533 69 306 3.5 13.9 0.00 0.00 0.00 31 1013.6
20260503180052 69 63 8.7 13.9 0.00 0.00 0.00 29 1013.6
20260503175534 70 34 1.7 14.8 0.00 0.00 0.00 30 1013.7